Preview of NWS' New Version of Forecast
This preview is not operational and should not be used for support decisions.

Regional Weather Roundup (RWR)

Issued by National Weather Service (NWS)

                            
000
ASUS46 KSEW 190110
RWRWA 

WASHINGTON REGIONAL WEATHER ROUNDUP
NATIONAL WEATHER SERVICE SEATTLE WA
600 PM PDT MON MAR 18 2019

NOTE:"FAIR" INDICATES FEW OR NO CLOUDS BELOW 12,000 FEET WITH NO 
SIGNIFICANT WEATHER AND/OR OBSTRUCTIONS TO VISIBILITY.

WAZ507-509-555>559-190200-
SEATTLE, TACOMA, EVERETT, AND VICINITY
  
CITY           SKY/WX    TMP DP  RH WIND       PRES   REMARKS
EVERETT        SUNNY     66  34  30 NW6       30.11F                  
BOEING FIELD   SUNNY     73  20  13 SE12G20   30.08F                  
RENTON         SUNNY     73  25  16 E13G24    30.07F                  
SEATAC AIRPORT SUNNY     72  24  16 E20G28    30.09S                  
JBLM-MCCHORD   SUNNY     73  37  27 NE12G17   30.06F                  
PUYALLUP       FAIR      75  21  13 VRB3      30.06F                  
BREMERTON      SUNNY     70  32  24 NE6       30.09F                  
JBLM-FT LEWIS  SUNNY     73  42  32 N9        30.07S                  
TACOMA NARROWS SUNNY     68  32  26 N10       30.08S                  
$$
 
WAZ001-503-506-510-514-515-190200-
NORTH INTERIOR
  
CITY           SKY/WX    TMP DP  RH WIND       PRES   REMARKS
BELLINGHAM     SUNNY     62  37  39 W5        30.11F                  
FRIDAY HARBOR  SUNNY     60  34  37 N6        30.11F                  
EASTSOUND      SUNNY     54  41  62 CALM      30.12F                  
PORT ANGELES   SUNNY     60  37  42 E8        30.10F                  
EDIZ HOOK      FAIR      55  42  61 E5        30.10F                  
PORT TOWNSEND  FAIR      61  41  48 CALM      30.10F                  
NAS WHIDBEY    NOT AVBL                                               
ARLINGTON      SUNNY     68  42  38 W6        30.10F                  
BURLINGTON     SUNNY     61  39  44 NW8       30.11S                  
$$
 
WAZ020-022-039-040-504-511-512-190200-
SOUTHWEST INTERIOR
  
CITY           SKY/WX    TMP DP  RH WIND       PRES   REMARKS
SHELTON        SUNNY     73  29  19 N12G17    30.04F                  
OLYMPIA        SUNNY     72  29  20 NE10      30.05F                  
CHEHALIS       FAIR      73  39  29 SW3       30.04F                  
KELSO          SUNNY     71  28  20 SE18G25   30.05S                  
VANCOUVER      SUNNY     65  29  25 E14G25    30.06F                  
SCAPPOOSE, OR  SUNNY     68  31  25 E17G23    30.07F                  
PORTLAND, OR   SUNNY     64  31  28 E24G33    30.06F                  
$$
 
WAZ021-516-517-190200-
WASHINGTON COAST
  
CITY           SKY/WX    TMP DP  RH WIND       PRES   REMARKS
FORKS          SUNNY     69  34  27 NE12      30.01F                  
HOQUIAM        SUNNY     74  30  19 NE21      30.00F                  
ASTORIA, OR    SUNNY     71  27  19 E17G29    29.97F                  
$$
 
WAZ019-023-024-040-567>569-190200-
CASCADE MOUNTAINS AND COLUMBIA GORGE
  
CITY           SKY/WX    TMP DP  RH WIND       PRES   REMARKS
STAMPEDE PASS  NOT AVBL                                               
TROUTDALE, OR  SUNNY     62  33  33 E15G26    30.07F                  
HOOD RIVER, OR CLEAR     54  34  47 MISG      30.23F                  
THE DALLES, OR SUNNY     54  36  50 E3        30.24F                  
$$

WAZ026-027-041>044-520-521-190200-
EAST SLOPES
  
CITY           SKY/WX    TMP DP  RH WIND       PRES   REMARKS
OMAK           SUNNY     60  32  34 CALM      30.26F                  
WENATCHEE      SUNNY     55  32  41 CALM      30.26F                  
ELLENSBURG     SUNNY     52  34  50 NW8       30.24F                  
YAKIMA         SUNNY     58  30  34 N13       30.25S                  
SUNNYSIDE ARPT CLEAR     54  39  57 SE7       30.25                   
YAKIMA TC      FAIR      54  31  42 E13       30.23F                  
$$

WAZ028-034-035-190200-
COLUMBIA BASIN
  
CITY           SKY/WX    TMP DP  RH WIND       PRES   REMARKS
EPHRATA        SUNNY     53  30  41 N7        30.25F                  
MOSES LAKE     SUNNY     52  35  52 N10       30.25F                  
PASCO          SUNNY     50  35  56 SE7       30.26F                  
RICHLAND ARPT  CLEAR     54  38  55 E6        30.26F                  
HERMISTON, OR  SUNNY     52  34  50 NE7       30.24F                  
$$

WAZ036>038-190200-
NORTHEAST WASHINGTON
  
CITY           SKY/WX    TMP DP  RH WIND       PRES   REMARKS
SPOKANE GEIGER PTCLDY    55  26  32 N3        30.24F                  
SPOKANE FELTS  CLEAR     60  25  26 CALM      30.24F                  
FAIRCHILD AFB  CLEAR     47  30  52 CALM      30.23F                  
COEURDALENE,ID CLEAR     44  29  55 CALM      30.24F                  
DEER PARK      CLEAR     56  18  22 MISG      30.24F                  
$$

WAZ029>033-190200-
SOUTHEAST WASHINGTON
  
CITY           SKY/WX    TMP DP  RH WIND       PRES   REMARKS
PULLMAN        CLEAR     45  31  58 CALM      30.24F                  
LEWISTON, ID   CLEAR     55  34  45 SE3       30.21F                  
WALLA WALLA    CLEAR     50  37  61 N3        30.24F                  
PENDLETON, OR  SUNNY     47  36  65 NE12      30.23S                  
$$